This demonstration page uses our WeatherBlox Daily Observations layout. Learn more.

Left ArrowRight Arrow

30.21309, -93.2044

Hourly Observations for August 11, 2020

Temp ( °F °C ) Dew Point ( °F °C ) Humidity (%) Winds ( mph kmh ) Pressure ( in mb ) Visibility ( mi km ) Precip ( " mm )
12:15 am 00:15 Clear 76 24.6 75 23.8 95 95 SSE 6 9 30.02 1017 10 16 0.00 0.00
12:35 am 00:35 Clear 76 24.5 75 24 97 97 S 3 6 30.02 1017 10 16 0.00 0.00
12:55 am 00:55 Clear 76 24.6 75 23.9 96 96 Calm 30.02 1017 10 16 0.00 0.00
1:15 am 01:15 Clear 77 24.8 76 24.2 96 96 Calm 30.02 1017 10 16 0.00 0.00
1:35 am 01:35 Clear 76 24.2 75 23.7 97 97 ESE 3 6 30.02 1017 10 16 0.00 0.00
1:55 am 01:55 Clear 75 23.9 74 23.5 98 98 SE 3 6 30.02 1017 10 16 0.00 0.00
2:15 am 02:15 Clear 76 24.6 76 24.2 98 98 Calm 30.02 1017 10 16 0.00 0.00
2:35 am 02:35 Clear 76 24.7 76 24.2 97 97 Calm 30.02 1017 10 16 0.00 0.00
2:55 am 02:55 Clear 76 24.2 75 23.8 98 98 Calm 30.01 1016 7 11 0.00 0.00
3:15 am 03:15 Clear with Mist and Fog 75 24.1 75 23.9 99 99 Calm 30.01 1016 7 11 0.00 0.00
3:35 am 03:35 Clear with Mist and Fog 75 24.1 75 23.9 99 99 Calm 30.01 1016 3 4 0.00 0.00
3:55 am 03:55 Clear 75 23.9 75 23.7 99 99 Calm 30.01 1016 10 16 0.00 0.00
4:15 am 04:15 Clear 75 23.9 75 23.7 99 99 Calm 30.01 1016 7 11 0.00 0.00
4:35 am 04:35 Clear with Mist and Fog 74 23.3 74 23.2 99 99 Calm 30.01 1016 2 3 0.00 0.00
4:55 am 04:55 Clear 75 23.8 74 23.6 99 99 Calm 30.01 1016 10 16 0.00 0.00
5:15 am 05:15 Clear 74 23.6 74 23.3 98 98 Calm 30.02 1017 10 16 0.00 0.00
5:35 am 05:35 Clear with Mist and Fog 73 23 73 22.8 99 99 Calm 30.02 1017 4 6 0.00 0.00
6:00 am 06:00 Mostly Clear 73 23 73 23 100 100 Calm 30.02 1017 10 16 0.00 0.00
6:55 am 06:55 Mostly Sunny 73 23 73 23 100 100 Calm 30.03 1017 10 16 0.00 0.00
7:50 am 07:50 Mostly Sunny 77 25 75 24 94 94 Calm 30.03 1017 10 16 0.00 0.00
8:55 am 08:55 Mostly Sunny 84 29 79 26 84 84 S 6 9 30.04 1017 10 16 0.00 0.00
10:51 am 10:51 Mostly Cloudy 90 32 75 24 63 63 Calm 30.04 1017 10 16 0.00 0.00
11:53 am 11:53 Partly Cloudy 91 33 75 24 59 59 S 8 13 30.03 1017 10 16 0.00 0.00
12:52 pm 12:52 Mostly Cloudy 91 33 75 24 59 59 S 6 9 30.02 1017 10 16 0.00 0.00
1:52 pm 13:52 Partly Cloudy 91 33 75 24 59 59 SSW 6 9 30.00 1016 10 16 0.00 0.00
2:50 pm 14:50 Partly Cloudy 93 34 75 24 56 56 S 12 19 29.98 1015 10 16 0.00 0.00
3:50 pm 15:50 Partly Cloudy 93 34 75 24 56 56 SW 10 17 29.96 1015 10 16 0.00 0.00
4:50 pm 16:50 Partly Cloudy 93 34 73 23 53 53 SSW 10 17 29.95 1014 10 16 0.00 0.00
5:55 pm 17:55 Partly Cloudy 91 33 75 24 59 59 SSW 14 22 29.95 1014 10 16 0.00 0.00
6:50 pm 18:50 Mostly Sunny 90 32 75 24 63 63 SSW 13 20 29.95 1014 10 16 0.00 0.00
7:50 pm 19:50 Mostly Sunny 88 31 77 25 70 70 S 9 15 29.94 1014 10 16 0.00 0.00
8:55 pm 20:55 Mostly Clear 84 29 79 26 84 84 SSW 7 11 29.97 1015 10 16 0.00 0.00
9:50 pm 21:50 Mostly Clear 81 27 77 25 89 89 S 5 7 29.98 1015 10 16 0.00 0.00
10:15 pm 22:15 Clear 81 27.2 78 25.3 89 89 S 6 9 29.99 1016 10 16 0.00 0.00
10:35 pm 22:35 Clear 80 26.4 77 25 92 92 SSE 6 9 30.00 1016 10 16 0.00 0.00
10:55 pm 22:55 Clear 81 27.1 78 25.3 90 90 S 6 9 30.00 1016 10 16 0.00 0.00
11:15 pm 23:15 Clear 78 25.7 77 24.8 95 95 SSE 5 7 30.00 1016 10 16 0.00 0.00
11:35 pm 23:35 Clear 78 25.8 77 24.9 95 95 SSE 5 7 30.00 1016 10 16 0.00 0.00
11:55 pm 23:55 Clear 79 26.1 77 25 94 94 S 5 7 30.00 1016 10 16 0.00 0.00

Powered by AerisWeather